North Platte, NE

11:29 PM CST on December 17, 2017 (GMT -0600)
North Platte Regional-Bird

Weather History for KLBF - February, 2015

Change the Weather History Date:

Saturday, February 14, 2015

  Actual Average Record
Temperature  
Mean Temperature 27 °F 29 °F  
Max Temperature 34 °F 43 °F 72 °F (1999)
Min Temperature 20 °F 15 °F -17 °F (1936)
Degree Days  
Heating Degree Days 38 36  
Month to date heating degree days 450 529  
Since 1 July heating degree days 4302 4549  
Cooling Degree Days 0 0  
Month to date cooling degree days 0 0  
Year to date cooling degree days 0 0  
Moisture  
Dew Point 18 °F    
Average Humidity 69    
Maximum Humidity 92    
Minimum Humidity 45    
Precipitation  
Precipitation 0.00 in 0.01 in 0.36 in (1964)
Month to date precipitation 0.43 0.19  
Year to date precipitation 0.71 0.53  
Snow  
Snow 0.00 in 0.20 in 5.20 in (1964)
Month to date snowfall 6.1 2.6  
Since 1 July snowfall 18.7 18.2  
Snow Depth 0.00 in    
Sea Level Pressure  
Sea Level Pressure 30.27 in    
Wind  
Wind Speed 11 mph (East)    
Max Wind Speed 22 mph    
Max Gust Speed 27 mph    
Visibility 10 miles    
Events      
T = Trace of Precipitation, MM = Missing Value Source: NWS Daily Summary

Daily Weather History Graph

Daily Weather History Graph

Search for Another Location

Airport or City:

Trip Planner

Search our weather history database for the weather conditions in past years. The results will help you decide how hot, cold, wet, or windy it might be!

Date:

Astronomy

Feb. 14, 2015 Rise Set
Actual Time 7:38 AM CST 6:15 PM CST
Civil Twilight 7:10 AM CST 6:43 PM CST
Nautical Twilight 6:38 AM CST 7:16 PM CST
Astronomical Twilight 6:06 AM CST 7:48 PM CST
Moon 3:44 AM CST (2/14) 1:50 PM CST (2/14)
Length of Visible Light 11h 33m
Length of Day
10h 36m
Waning Crescent, 24% of the Moon is Illuminated
Feb 14
Waning Crescent
Feb 18
New
Feb 25
First Quarter
Mar 5
Full
Mar 13
Last Quarter

Hourly Weather History & Observations

Time (CST) Temp. Windchill Dew Point Humidity Pressure Visibility Wind Dir Wind Speed Gust Speed Precip Events Conditions
12:53 AM 30.0 °F 22.4 °F 26.1 °F 85% 30.17 in 10.0 mi NW 8.1 mph - N/A   Clear
1:53 AM 30.0 °F 22.4 °F 26.1 °F 85% 30.15 in 10.0 mi NW 8.1 mph - N/A   Clear
2:53 AM 28.9 °F 20.4 °F 26.1 °F 89% 30.16 in 10.0 mi NW 9.2 mph - N/A   Clear
3:53 AM 25.0 °F 18.1 °F 23.0 °F 92% 30.15 in 10.0 mi NW 5.8 mph - N/A   Clear
4:53 AM 26.1 °F 19.4 °F 23.0 °F 88% 30.14 in 10.0 mi NW 5.8 mph - N/A   Clear
5:53 AM 26.1 °F 20.5 °F 24.1 °F 92% 30.17 in 10.0 mi NW 4.6 mph - N/A   Clear
6:53 AM 27.0 °F 21.6 °F 24.1 °F 89% 30.19 in 10.0 mi NW 4.6 mph - N/A   Clear
7:53 AM 27.0 °F - 24.1 °F 89% 30.22 in 10.0 mi Calm Calm - N/A   Clear
8:53 AM 34.0 °F 24.6 °F 28.9 °F 82% 30.27 in 10.0 mi ENE 13.8 mph - N/A   Clear
9:35 AM 30.0 °F 18.3 °F 26.1 °F 85% 30.23 in 10.0 mi NE 17.3 mph 25.3 mph N/A   Mostly Cloudy
9:53 AM 28.0 °F 14.9 °F 25.0 °F 88% 30.34 in 10.0 mi ENE 19.6 mph 26.5 mph N/A   Overcast
10:38 AM 28.0 °F 16.1 °F 25.0 °F 88% 30.28 in 10.0 mi ENE 16.1 mph 23.0 mph N/A   Overcast
10:53 AM 26.1 °F 14.0 °F 24.1 °F 92% 30.37 in 10.0 mi NE 15.0 mph - N/A   Overcast
11:26 AM 26.1 °F 12.7 °F 21.9 °F 84% 30.29 in 10.0 mi ENE 18.4 mph - N/A   Overcast
11:53 AM 25.0 °F 11.7 °F 21.0 °F 85% 30.38 in 10.0 mi ENE 17.3 mph - N/A   Overcast
12:53 PM 25.0 °F 12.2 °F 19.0 °F 78% 30.37 in 10.0 mi East 16.1 mph - N/A   Overcast
1:00 PM 25.0 °F 12.2 °F 19.0 °F 78% 30.28 in 10.0 mi East 16.1 mph - N/A   Overcast
1:53 PM 26.1 °F 14.0 °F 18.0 °F 71% 30.35 in 10.0 mi East 15.0 mph - N/A   Overcast
2:00 PM 26.1 °F 14.5 °F 18.0 °F 71% 30.27 in 10.0 mi East 13.8 mph - N/A   Overcast
2:53 PM 27.0 °F 16.1 °F 18.0 °F 69% 30.34 in 10.0 mi East 12.7 mph - N/A   Overcast
3:53 PM 27.0 °F 18.0 °F 17.1 °F 66% 30.33 in 10.0 mi SE 9.2 mph - N/A   Mostly Cloudy
4:25 PM 28.0 °F 16.5 °F 17.1 °F 63% 30.21 in 10.0 mi ESE 15.0 mph - N/A   Scattered Clouds
4:53 PM 28.0 °F 18.1 °F 16.0 °F 61% 30.30 in 10.0 mi SSE 11.5 mph - N/A   Clear
5:53 PM 27.0 °F 16.1 °F 12.0 °F 53% 30.30 in 10.0 mi ESE 12.7 mph - N/A   Mostly Cloudy
6:53 PM 24.1 °F 10.6 °F 9.0 °F 53% 30.32 in 10.0 mi ESE 17.3 mph - N/A   Overcast
7:53 PM 21.9 °F 8.7 °F 3.9 °F 46% 30.35 in 10.0 mi ESE 15.0 mph - N/A   Overcast
8:53 PM 21.0 °F 8.1 °F 3.9 °F 48% 30.32 in 10.0 mi ESE 13.8 mph - N/A   Overcast
9:53 PM 19.9 °F 6.7 °F 1.9 °F 46% 30.34 in 10.0 mi ESE 13.8 mph - N/A   Overcast
10:53 PM 19.9 °F 7.9 °F 5.0 °F 52% 30.34 in 10.0 mi SE 11.5 mph - N/A   Overcast
11:09 PM 19.9 °F 10.1 °F 6.1 °F 55% 30.22 in 10.0 mi SE 8.1 mph - N/A   Scattered Clouds
11:32 PM 19.9 °F 9.3 °F 6.1 °F 55% 30.21 in 10.0 mi SE 9.2 mph - N/A   Mostly Cloudy
11:53 PM 21.0 °F 10.6 °F 5.0 °F 50% 30.32 in 10.0 mi SE 9.2 mph - N/A   Mostly Cloudy